Pilanesberg International Airport

Jump to: basic info | weather | frequencies | runways | comments

Related pages: nearby airports | nearby navaids | notams | map

Basic information (top)

Codes: NTY FAPN
Location: lon -25.333799, lat 27.173401, elev 3,412 ft / 1,040 m msl
Status: small_airport
Scheduled airline service: no
Links: Wikipedia Mobile

Weather (top)

Current conditions (rec'd 2015/02/28 01:00Z):

FAPN 280100Z AUTO 20002KT 16/13 Q1018

Airport forecast (rec'd 2015/02/22 07:15Z):

TAF FAPN 220600Z 2207/2218 09008KT CAVOK 
      BECMG 2213/2215 03011KT TX33/2213ZTN25/2218Z

Frequencies (top)

Verify before use: may be inaccurate or out of date.

TWR: 118.4 MHz (TWR)

Runways (top)

05/23: 9,022 x 98 ft (2,750 x 30 m) — paved — lighted

Latest comments (top)

For all First Time Night Flyers!!!: Pilanesberg Int., amazing airport ... [read]

Flighs: Kindly request if you do have flights ... [read]

More... (top)

See also NOTAMs and nearby airports and navaids, or visit the Pilanesberg International Airport page at the main OurAirports website..